Temp
14 14 14 14 14 14 14 14 13 13 13 12 12 12 11 11 11 11 11 11 11 11 11 11 10 10 10 10 10 10 10 10 11 11 11 11 11 11 11 11 11 11
14 14 14 14 14 14 14 14 13 13 13 12 12 12 11 11 11 11 11 11 11 11 11 11 11 10 10 10 10 10 10 10 10 10 10 11 11 11 11 11 11 11
13 13 13 13 13 14 14 13 13 13 13 13 12 12 12 12 11 11 11 11 11 11 11 11 11 11 10 10 11 10 10 10 10 10 10 10 10 10 11 11 11 11
13 13 13 13 13 14 14 13 13 13 13 13 13 12 12 12 12 11 11 11 11 11 11 11 10 10 10 10 10 11 11 10 10 10 10 10 10 10 10 10 10 11
13 13 13 13 13 13 13 13 13 13 13 13 13 12 12 12 12 11 11 11 11 11 11 10 10 10 10 10 10 10 10 10 10 10 10 10 10 10 10 10 10 10
13 13 13 13 13 13 13 13 13 13 13 13 13 12 12 12 12 11 11 11 11 10 10 10 10 10 10 10 10 10 10 10 10 10 10 10 10 10 10 10 10 10
13 13 13 13 13 13 13 13 13 13 12 12 12 12 12 12 11 11 11 11 10 10 10 10 10 10 10 10 10 10 10 10 9 9 9 9 9 9 9 10 10 10
13 13 13 13 13 13 12 12 12 12 12 12 12 12 12 12 11 11 11 11 10 10 10 10 10 10 10 10 10 10 10 10 9 9 9 9 9 9 9 9 9 9
12 12 12 12 12 12 12 12 12 12 12 12 12 12 11 11 11 11 11 11 10 10 10 10 10 10 10 10 10 10 10 10 10 9 9 9 9 9 9 9 9 9
12 12 12 12 12 12 12 12 12 12 12 11 12 12 12 11 11 11 11 11 11 10 10 10 10 10 10 10 10 10 10 10 10 10 9 9 9 9 9 9 9 9
12 11 11 11 12 12 12 12 12 11 11 11 11 12 12 11 11 11 11 11 11 11 11 11 10 10 10 10 10 10 10 10 10 10 9 9 9 9 9 9 9 9
11 11 11 11 11 11 12 12 12 11 11 11 11 11 11 11 11 11 11 11 11 11 11 11 11 10 10 10 10 10 10 10 10 10 9 9 9 9 9 9 8 8
10 10 11 11 11 11 11 12 11 11 11 11 11 11 11 11 11 11 11 11 11 11 11 11 11 10 10 10 10 9 9 10 9 9 9 9 9 9 9 9 8 8
10 10 11 11 11 11 11 11 11 11 11 11 11 11 11 11 11 11 11 11 11 11 10 10 10 10 10 10 9 9 9 9 9 9 9 9 9 9 9 9 9 8
10 10 10 10 10 11 11 11 11 11 11 11 11 11 11 11 11 11 11 10 10 10 10 10 10 10 9 9 9 9 9 9 9 9 9 9 9 9 9 9 8 9
10 10 10 10 10 10 10 11 11 11 11 11 11 11 11 11 10 10 10 10 10 10 10 9 9 9 9 9 9 9 9 9 9 9 9 9 9 9 9 9 8 9
10 10 10 10 10 10 10 10 10 10 10 10 10 10 10 10 10 10 10 10 10 9 9 9 9 9 9 9 9 9 9 9 9 9 9 9 9 9 8 8 8 9
9 10 10 10 10 10 10 10 10 10 10 10 10 10 10 10 10 9 9 9 9 9 9 9 9 9 9 9 9 9 9 9 9 9 9 9 8 8 8 8 8 9
10 10 9 10 10 10 10 10 10 10 10 10 10 10 10 10 9 9 9 9 9 9 9 9 9 9 8 9 8 8 8 8 8 8 8 8 8 8 8 8 8 8
10 9 10 10 10 10 10 10 10 10 10 9 9 9 9 9 9 9 9 9 9 9 9 9 8 8 8 8 8 8 8 8 8 8 8 8 8 8 8 8 8 8
9 9 9 9 9 9 9 9 9 9 9 9 9 9 9 9 9 9 9 9 9 8 8 8 8 8 8 9 9 9 9 9 9 9 8 8 8 8 8 8 8 7
9 9 9 9 9 9 9 9 9 9 9 9 9 9 9 9 9 8 8 8 8 8 8 8 8 8 8 8 8 8 8 8 8 8 8 8 8 8 8 8 7 7
9 8 8 8 8 9 9 9 9 9 9 9 9 8 8 8 8 8 8 8 8 8 8 8 8 8 8 8 8 8 8 8 8 8 8 8 8 8 7 7 7 7
8 8 8 8 8 8 8 8 8 8 8 8 8 8 8 8 8 8 8 8 8 8 8 8 8 8 8 8 8 8 8 8 8 8 8 8 8 7 7 7 7 7
8 8 8 8 8 8 8 8 8 8 8 8 8 8 8 8 8 8 8 8 8 8 8 7 7 7 7 7 7 7 7 7 7 7 7 7 7 7 7 6 6 6
8 8 8 8 8 8 8 8 8 8 8 8 8 8 8 8 8 8 8 8 8 8 7 7 7 7 7 7 7 7 7 7 7 6 6 6 6 6 6 6 6 5
Height
1537 1538 1539 1540 1541 1542 1543 1544 1545 1546 1547 1547 1548 1549 1550 1551 1551 1552 1552 1552 1552 1552 1552 1553 1553 1553 1553 1553 1553 1553 1553 1554 1555 1555 1555 1556 1556 1556 1555 1555 1555 1555
1536 1537 1538 1539 1540 1541 1543 1544 1545 1546 1547 1548 1549 1550 1550 1551 1552 1552 1553 1553 1553 1553 1553 1553 1554 1554 1554 1554 1554 1554 1554 1555 1555 1555 1556 1556 1556 1556 1556 1556 1556 1556
1535 1537 1538 1539 1540 1541 1543 1544 1545 1546 1548 1549 1549 1550 1551 1552 1552 1553 1554 1554 1554 1554 1554 1554 1554 1554 1555 1555 1555 1555 1555 1555 1556 1556 1556 1557 1557 1557 1557 1557 1557 1557
1534 1536 1537 1538 1539 1541 1542 1544 1545 1546 1548 1549 1549 1550 1551 1552 1553 1553 1554 1554 1555 1555 1555 1555 1555 1555 1555 1555 1555 1555 1555 1556 1557 1557 1557 1557 1558 1558 1558 1558 1558 1558
1534 1535 1536 1537 1538 1540 1542 1543 1545 1546 1547 1549 1549 1550 1551 1552 1553 1553 1554 1554 1555 1555 1555 1555 1555 1555 1555 1555 1555 1556 1556 1556 1557 1557 1558 1558 1558 1559 1559 1559 1559 1558
1533 1534 1534 1536 1537 1539 1541 1543 1544 1545 1546 1548 1549 1550 1551 1552 1553 1553 1554 1554 1555 1555 1555 1556 1556 1556 1556 1556 1556 1556 1556 1557 1557 1558 1558 1558 1558 1559 1559 1559 1559 1559
1531 1532 1533 1535 1536 1538 1540 1542 1543 1544 1545 1546 1547 1549 1550 1551 1553 1553 1553 1554 1554 1555 1556 1556 1556 1556 1556 1556 1557 1557 1557 1557 1557 1558 1558 1558 1558 1559 1559 1559 1560 1560
1529 1531 1532 1534 1535 1537 1539 1541 1542 1543 1544 1545 1546 1547 1549 1550 1551 1552 1553 1553 1554 1554 1555 1555 1556 1556 1556 1556 1557 1557 1557 1557 1557 1557 1557 1558 1558 1558 1558 1559 1559 1560
1527 1529 1530 1532 1534 1535 1537 1539 1541 1542 1542 1543 1544 1546 1547 1549 1550 1551 1551 1552 1552 1553 1554 1554 1554 1555 1555 1556 1556 1557 1557 1557 1557 1557 1557 1557 1557 1558 1558 1558 1558 1559
1526 1527 1529 1531 1533 1534 1536 1538 1540 1541 1541 1542 1543 1545 1546 1547 1549 1550 1550 1550 1551 1552 1552 1553 1553 1554 1554 1554 1555 1556 1556 1556 1556 1557 1557 1557 1557 1557 1557 1557 1557 1558
1524 1526 1528 1530 1532 1534 1535 1537 1538 1540 1540 1541 1542 1543 1545 1546 1547 1547 1548 1549 1550 1550 1551 1552 1552 1553 1553 1553 1553 1554 1555 1555 1555 1555 1556 1556 1556 1556 1556 1556 1556 1557
1523 1525 1526 1528 1531 1532 1534 1535 1537 1538 1539 1540 1541 1542 1543 1544 1544 1545 1546 1547 1548 1548 1549 1550 1551 1551 1551 1551 1551 1552 1553 1553 1554 1554 1554 1554 1554 1554 1554 1554 1555 1555
1521 1523 1525 1527 1529 1531 1533 1534 1535 1537 1537 1538 1540 1541 1541 1542 1542 1543 1544 1545 1545 1546 1547 1548 1548 1549 1549 1549 1550 1551 1551 1551 1552 1552 1552 1552 1552 1553 1553 1553 1553 1554
1520 1522 1524 1526 1528 1530 1531 1532 1534 1535 1536 1537 1538 1539 1539 1539 1540 1541 1542 1542 1543 1544 1545 1545 1546 1547 1547 1548 1549 1549 1549 1550 1550 1550 1550 1550 1551 1551 1551 1551 1551 1552
1520 1522 1523 1525 1527 1528 1529 1531 1532 1533 1534 1535 1536 1537 1537 1537 1538 1539 1539 1540 1541 1542 1542 1543 1544 1545 1545 1546 1547 1547 1547 1548 1548 1548 1548 1549 1549 1549 1549 1549 1549 1550
1521 1522 1523 1525 1526 1527 1528 1529 1530 1531 1532 1533 1534 1534 1534 1535 1535 1536 1536 1537 1538 1539 1540 1541 1542 1543 1543 1544 1545 1545 1546 1546 1546 1546 1546 1547 1547 1547 1547 1546 1547 1548
1521 1521 1523 1524 1526 1527 1528 1528 1529 1530 1531 1532 1532 1533 1533 1533 1533 1534 1534 1535 1536 1537 1538 1539 1540 1541 1542 1543 1543 1544 1545 1545 1545 1545 1545 1545 1545 1545 1545 1545 1545 1546
1521 1521 1522 1523 1525 1526 1526 1527 1528 1528 1529 1530 1531 1531 1532 1532 1532 1533 1534 1535 1535 1536 1537 1538 1539 1540 1541 1542 1542 1543 1543 1543 1543 1543 1543 1544 1544 1544 1544 1544 1544 1544
1521 1522 1523 1523 1524 1525 1526 1526 1527 1527 1528 1529 1530 1531 1531 1532 1532 1533 1534 1535 1535 1536 1537 1538 1539 1539 1540 1540 1541 1541 1542 1542 1542 1542 1542 1543 1543 1543 1543 1543 1543 1543
1522 1523 1524 1524 1525 1525 1526 1527 1527 1528 1528 1529 1530 1531 1531 1532 1533 1533 1534 1535 1535 1536 1537 1538 1538 1538 1539 1539 1540 1540 1540 1541 1541 1541 1541 1541 1541 1541 1542 1542 1542 1542
1524 1525 1525 1526 1526 1526 1527 1527 1528 1528 1529 1529 1530 1531 1531 1532 1532 1533 1534 1534 1535 1536 1536 1537 1537 1538 1538 1538 1538 1539 1539 1539 1539 1539 1539 1539 1540 1540 1540 1540 1540 1540
1524 1525 1526 1526 1527 1527 1528 1528 1529 1529 1529 1529 1530 1530 1531 1531 1532 1533 1533 1534 1534 1535 1535 1536 1536 1537 1537 1537 1537 1537 1537 1537 1537 1538 1538 1538 1538 1538 1538 1538 1538 1538
1525 1526 1526 1527 1527 1528 1528 1529 1529 1529 1529 1530 1530 1530 1530 1531 1532 1532 1533 1533 1534 1534 1535 1535 1535 1535 1535 1535 1535 1535 1535 1535 1536 1536 1536 1536 1536 1536 1536 1536 1536 1536
1524 1525 1525 1526 1527 1528 1529 1529 1529 1529 1530 1530 1530 1530 1530 1530 1531 1531 1532 1532 1533 1533 1533 1534 1534 1534 1534 1534 1534 1534 1534 1534 1534 1534 1534 1534 1534 1534 1534 1534 1534 1534
1522 1522 1523 1524 1525 1526 1527 1528 1528 1529 1529 1529 1529 1529 1529 1529 1529 1530 1530 1530 1531 1531 1532 1532 1532 1533 1533 1533 1533 1533 1533 1533 1533 1533 1533 1533 1533 1533 1533 1533 1533 1532
1521 1521 1521 1522 1523 1524 1525 1525 1526 1526 1527 1527 1528 1528 1528 1528 1528 1528 1528 1529 1529 1530 1530 1531 1531 1531 1531 1532 1531 1531 1531 1531 1531 1531 1531 1531 1531 1531 1531 1531 1531 1531
Wind_Speed
10 9 8 7 7 6 5 7 8 8 8 8 8 8 7 7 7 7 7 7 7 7 7 8 9 9 9 9 10 10 10 9 8 9 8 7 7 7 7 7 7 7
11 10 10 8 8 7 7 7 8 8 8 8 8 9 8 7 7 7 7 7 7 7 7 8 9 9 10 9 10 10 10 9 9 9 9 8 8 8 8 8 8 8
13 12 11 9 8 9 8 8 9 10 9 8 9 8 7 7 7 7 7 6 6 6 6 7 7 8 9 9 9 9 10 10 9 9 9 8 8 8 8 8 8 8
14 13 11 9 10 11 10 10 10 10 9 8 8 8 7 6 6 5 5 5 6 6 6 6 6 7 7 8 8 8 8 9 9 9 9 9 8 8 8 8 8 8
15 13 11 11 12 12 12 11 10 9 9 8 8 8 7 6 6 5 5 5 5 5 5 6 5 5 5 6 6 7 7 8 8 8 8 9 9 8 8 8 7 7
15 14 12 12 13 14 13 12 11 10 10 9 9 8 8 7 7 6 6 5 4 4 4 4 4 4 4 4 4 4 5 6 7 7 7 7 7 7 7 7 7 7
16 15 14 13 14 15 13 12 13 13 12 11 10 10 9 8 7 6 6 4 3 2 1 2 3 4 5 5 4 3 3 3 3 4 5 5 5 5 5 5 5 5
17 17 16 14 14 16 15 13 14 15 14 13 12 12 10 9 8 7 6 4 3 2 1 1 2 3 4 4 4 3 3 2 1 1 1 2 2 2 3 4 4 4
17 19 18 15 14 16 16 14 14 15 15 15 14 13 12 11 11 9 8 7 5 4 4 3 1 2 3 4 5 4 4 3 3 2 1 1 1 1 1 1 2 3
17 18 19 17 15 16 16 15 15 15 14 14 14 14 13 13 12 11 9 9 8 7 7 6 5 5 5 6 7 8 8 7 6 5 4 4 4 4 4 3 3 4
17 17 18 17 15 16 17 16 16 16 15 14 14 14 15 14 13 12 12 11 11 11 10 10 10 10 10 9 10 11 12 13 13 11 8 8 8 7 7 6 7 7
16 16 18 18 17 16 16 17 18 18 17 15 13 13 14 15 14 14 14 14 14 15 14 14 15 15 14 14 15 15 15 16 17 15 13 12 11 10 9 9 9 10
13 13 14 16 17 16 16 17 17 17 18 16 14 12 13 15 15 16 16 16 16 16 16 18 19 18 17 17 17 16 16 17 16 16 16 15 14 14 13 11 10 11
10 9 9 10 14 16 16 16 16 17 18 17 14 12 13 14 15 15 16 17 17 17 18 19 19 18 17 17 17 17 17 17 16 16 16 17 16 16 15 13 12 12
8 8 7 7 10 13 14 15 15 16 17 16 14 13 14 15 16 17 18 18 17 16 16 16 16 16 16 16 16 16 16 16 16 16 17 17 17 16 16 16 15 14
7 6 5 5 6 8 9 11 13 14 14 14 14 14 15 15 16 16 17 17 16 14 13 13 13 12 12 11 11 11 11 11 12 12 13 14 14 14 15 16 15 14
8 8 7 6 7 8 9 10 11 12 13 13 12 11 9 7 6 6 7 8 8 7 7 6 6 5 5 6 6 6 6 7 8 8 9 9 10 10 11 13 12 10
7 8 7 7 8 9 9 10 10 11 11 10 9 7 6 5 5 5 6 5 5 5 5 5 4 4 4 5 5 6 6 7 7 8 8 8 9 9 9 10 10 9
5 5 6 6 7 7 8 8 8 8 8 8 8 7 7 7 6 6 6 6 5 5 4 4 4 5 5 6 7 8 8 9 9 9 9 9 9 10 10 10 10 9
5 5 5 6 8 8 8 8 8 8 8 8 8 8 8 7 7 6 5 5 5 5 5 5 5 6 7 8 9 10 10 11 11 10 11 11 11 11 11 11 10 9
5 5 5 6 7 8 9 8 8 8 8 9 8 8 7 7 6 6 6 5 5 5 4 5 5 5 6 7 8 8 9 9 9 10 10 11 12 12 13 13 12 11
5 4 4 5 6 7 7 7 7 7 7 6 6 6 6 6 6 6 5 5 3 3 3 3 3 4 5 6 7 8 8 9 9 9 10 10 11 12 13 13 13 12
5 4 4 4 5 5 6 6 6 6 6 6 6 6 6 6 5 4 3 2 2 3 4 4 5 6 7 8 9 10 10 11 11 11 11 11 11 11 12 12 12 12
6 7 7 6 6 6 7 8 7 7 7 7 7 6 6 5 4 3 3 4 5 6 6 7 7 8 9 10 10 11 11 11 11 12 12 12 11 11 11 11 11 12
10 11 12 12 11 10 10 10 9 9 9 8 8 7 7 6 6 6 7 8 8 8 9 9 10 11 12 12 11 11 11 11 11 12 12 11 11 11 10 10 11 12
10 10 11 11 11 11 11 11 10 10 9 9 8 8 8 8 8 8 9 9 10 11 11 12 12 13 13 12 12 12 12 12 12 12 12 12 11 11 10 10 11 11
Wind_Direction
182 166 154 150 154 151 137 127 126 123 120 122 121 116 112 105 98 90 82 76 71 67 65 62 60 59 59 63 66 66 64 63 63 64 63 63 67 73 78 79 80 82
187 177 166 160 164 166 156 145 141 137 137 139 130 122 116 107 100 92 82 75 72 69 65 61 57 54 52 54 58 61 61 60 60 62 62 63 68 70 71 74 76 78
193 184 175 166 169 174 170 161 156 154 156 154 140 128 121 112 104 94 85 76 70 68 67 63 57 53 50 49 52 54 56 56 54 57 58 61 69 68 67 69 71 76
197 187 177 169 173 179 181 178 169 164 168 167 152 140 132 122 113 100 88 77 70 63 59 59 56 53 49 46 47 48 49 50 49 51 50 49 53 58 61 63 64 72
201 189 179 175 178 182 185 187 178 169 175 180 170 159 150 139 132 123 108 93 80 68 59 57 56 56 53 50 48 44 41 41 41 43 44 41 38 38 42 49 51 57
205 195 189 184 182 182 186 191 187 180 184 190 186 177 168 156 148 143 133 121 107 90 74 63 55 51 47 45 49 47 43 40 36 34 34 36 37 31 29 34 38 40
211 205 201 194 186 182 184 191 192 190 192 193 192 187 181 176 168 159 151 145 139 117 65 45 44 43 36 27 21 25 35 44 46 40 31 28 31 28 21 20 21 25
217 213 210 207 197 187 184 188 191 192 194 195 194 189 188 191 189 182 178 185 202 230 266 322 3 11 13 10 2 356 358 3 15 59 70 51 37 29 16 6 358 359
221 217 215 215 210 197 189 192 194 192 193 196 198 197 195 199 201 200 205 216 226 237 242 239 258 321 336 340 336 327 320 314 299 283 269 269 323 336 328 331 326 323
225 221 218 219 220 208 197 198 200 197 196 198 203 206 204 206 212 217 224 233 239 242 246 251 254 267 286 299 303 299 293 287 280 274 267 264 271 281 283 290 294 288
230 225 220 219 221 215 206 205 207 205 203 205 209 211 210 214 222 228 237 245 248 250 257 268 271 272 275 281 288 289 285 283 278 270 266 265 264 266 271 281 288 285
230 228 223 221 222 219 214 213 213 211 210 213 220 222 221 226 232 238 246 250 251 254 261 269 271 271 273 278 287 291 287 283 276 267 267 270 267 267 269 272 278 281
224 229 227 223 219 217 216 219 219 218 217 220 228 234 233 237 244 249 253 255 256 257 261 263 265 268 271 276 284 288 283 279 273 265 264 265 264 265 265 265 269 273
217 222 217 209 208 212 216 219 220 221 221 223 231 239 241 245 252 254 255 258 260 259 258 259 261 264 268 274 280 281 276 271 267 262 261 262 263 264 261 259 262 264
203 201 190 185 197 210 216 217 218 218 220 226 236 245 251 256 259 258 256 258 259 258 256 257 260 263 267 270 273 273 270 268 266 266 266 266 267 266 261 255 252 251
207 209 205 200 207 216 218 218 221 223 226 236 245 252 258 261 261 258 255 253 254 255 254 254 255 258 262 265 267 267 270 273 276 277 276 274 274 274 270 267 263 259
219 228 231 227 224 228 230 229 231 234 237 241 244 244 246 244 237 231 229 230 232 232 229 226 226 230 240 251 259 269 281 289 295 297 298 295 292 289 287 289 293 285
211 222 228 228 225 226 230 233 233 229 225 220 212 199 184 171 161 156 158 165 171 175 178 182 191 209 229 246 262 276 287 294 298 299 300 300 299 298 298 302 307 303
174 189 196 195 193 193 198 203 204 198 191 183 173 163 159 159 157 152 152 159 166 172 179 190 205 225 244 259 270 278 284 287 289 289 289 290 291 293 297 300 303 303
137 148 156 156 157 164 170 175 178 175 170 167 163 161 161 161 161 164 169 174 183 191 199 214 229 243 256 266 272 276 279 281 281 280 280 282 284 288 292 294 296 298
134 142 148 150 154 161 167 171 174 173 170 167 166 167 170 172 175 181 186 189 194 202 212 227 243 254 263 270 275 279 282 284 285 284 282 281 280 282 285 287 289 292
116 131 149 159 163 168 174 180 183 185 187 185 182 180 178 178 180 181 183 186 193 212 235 257 277 292 300 302 301 302 303 303 303 302 297 290 284 280 279 281 283 285
127 133 142 157 174 184 191 195 196 202 205 202 197 189 181 177 177 180 189 211 249 272 282 293 302 311 315 315 313 313 312 312 312 311 309 305 297 289 283 281 282 282
227 230 229 234 242 239 229 222 220 219 220 217 213 211 210 210 219 239 266 285 291 291 294 301 307 310 311 309 310 309 309 310 311 310 310 309 306 299 291 284 281 279
266 261 256 253 252 245 234 229 228 229 229 230 230 235 244 252 262 274 284 291 294 295 298 303 307 310 309 309 310 309 309 311 312 312 313 312 310 306 297 288 285 285
266 259 253 245 235 227 224 228 234 236 237 240 245 250 258 266 272 278 283 288 291 293 297 301 305 306 307 308 310 312 314 316 316 317 317 315 314 311 302 295 295 297